EW9528 Weather Reports


Display with metric or nautical units.
time (UTC)temp
F
wind
direction
speed
MPH
gust
MPH
rain 1hr
in
rain 24hr
in
rain mn
in
humidity
%
barometer
mb
20260509094917 62 8 4.0 6.0 0.00 0.00 0.00 25 1019.4
20260509093916 62 14 7.0 11.0 0.00 0.00 0.00 25 1019.2
20260509092916 62 19 7.0 10.0 0.00 0.00 0.00 27 1019.0
20260509091915 62 9 7.0 14.0 0.00 0.00 0.00 27 1018.8
20260509090915 62 16 11.0 18.0 0.00 0.00 0.00 27 1018.7
20260509090814 62 353 7.0 13.0 0.00 0.00 0.00 28 1018.9
20260509085814 61 9 6.0 9.0 0.00 0.00 0.00 29 1018.7
20260509085715 61 3 7.0 14.0 0.00 0.00 0.00 30 1018.6
20260509084731 61 8 3.0 5.0 0.00 0.00 0.00 30 1018.7
20260509083814 60 259 3.0 5.0 0.00 0.00 0.00 33 1018.7
20260509081815 58 222 2.0 4.0 0.00 0.00 0.00 35 1018.7
20260509080815 59 208 2.0 4.0 0.00 0.00 0.00 36 1018.7
20260509075914 58 247 2.0 4.0 0.00 0.00 0.00 36 1018.5
20260509074914 59 270 0.0 1.0 0.00 0.00 0.00 34 1018.7
20260509074814 59 287 0.0 0.0 0.00 0.00 0.00 35 1018.7
20260509073816 59 292 1.0 1.0 0.00 0.00 0.00 34 1018.5
20260509072915 58 337 0.0 0.0 0.00 0.00 0.00 35 1018.5
20260509071916 57 225 0.0 0.0 0.00 0.00 0.00 35 1018.3
20260509071814 58 225 0.0 0.0 0.00 0.00 0.00 36 1018.3
20260509070914 58 225 1.0 1.0 0.00 0.00 0.00 35 1018.3
20260509070815 58 225 1.0 2.0 0.00 0.00 0.00 36 1018.2
20260509065814 58 247 1.0 1.0 0.00 0.00 0.00 35 1018.2
20260509064814 58 247 1.0 1.0 0.00 0.00 0.00 33 1018.2
20260509063815 60 202 4.0 4.0 0.00 0.00 0.00 33 1018.0
20260509062831 61 22 0.0 1.0 0.00 0.00 0.00 33 1017.9
20260509061917 61 6 4.0 7.0 0.00 0.00 0.00 33 1018.0
20260509060915 61 28 7.0 8.0 0.00 0.00 0.00 32 1017.9
20260509055939 60 324 3.0 7.0 0.00 0.00 0.00 32 1018.0
20260509054924 60 284 4.0 7.0 0.00 0.00 0.00 33 1017.8
20260509053922 60 225 2.0 3.0 0.00 0.00 0.00 31 1017.9
20260509052922 61 45 0.0 0.0 0.00 0.00 0.00 32 1017.8
20260509051923 61 45 0.0 0.0 0.00 0.00 0.00 32 1017.8
20260509050924 61 45 0.0 0.0 0.00 0.00 0.00 32 1017.8
20260509050022 62 45 0.0 0.0 0.00 0.00 0.00 31 1017.6
20260509043124 63 315 2.0 3.0 0.00 0.00 0.00 30 1017.8
20260509041221 63 180 1.0 2.0 0.00 0.00 0.00 31 1017.6
20260509040321 64 157 0.0 0.0 0.00 0.00 0.00 28 1017.4
20260509035323 65 292 0.0 0.0 0.00 0.00 0.00 27 1017.4
20260509034322 65 292 1.0 2.0 0.00 0.00 0.00 27 1017.3
20260509033323 65 292 1.0 3.0 0.00 0.00 0.00 27 1017.2
20260509032321 65 292 1.0 2.0 0.00 0.00 0.00 27 1017.1
20260509031323 66 292 2.0 2.0 0.00 0.00 0.00 27 1017.1
20260509030322 66 292 2.0 3.0 0.00 0.00 0.00 26 1017.2
20260509024420 67 360 0.0 0.0 0.00 0.00 0.00 25 1017.0
20260509021437 71 360 0.0 0.0 0.00 0.00 0.00 22 1016.8
20260509020523 72 360 1.0 3.0 0.00 0.00 0.00 20 1016.6
20260509015520 73 45 3.0 5.0 0.00 0.00 0.00 19 1016.7
20260509014521 74 27 4.0 6.0 0.00 0.00 0.00 19 1016.6
20260509013522 74 35 4.0 5.0 0.00 0.00 0.00 20 1016.6
20260509012521 75 34 3.0 6.0 0.00 0.00 0.00 20 1016.6
20260509011522 75 20 8.0 13.0 0.00 0.00 0.00 19 1016.7
20260509010523 75 10 6.0 11.0 0.00 0.00 0.00 18 1016.7
20260509005523 76 22 6.0 10.0 0.00 0.00 0.00 19 1016.8
20260509004621 75 4 6.0 11.0 0.00 0.00 0.00 19 1016.9
20260509004522 75 19 8.0 13.0 0.00 0.00 0.00 18 1016.9
20260509003523 76 41 9.0 13.0 0.00 0.00 0.00 19 1017.0
20260509003421 76 32 6.0 8.0 0.00 0.00 0.00 18 1017.1
20260509002422 76 7 5.0 8.0 0.00 0.00 0.00 18 1017.0
20260509002321 76 29 6.0 10.0 0.00 0.00 0.00 19 1017.1
20260509001239 76 9 4.0 6.0 0.00 0.00 0.00 19 1017.1
20260509000222 76 23 5.0 9.0 0.00 0.00 0.00 18 1017.2
20260508235222 76 36 8.0 11.0 0.00 0.00 0.00 18 1017.0
20260508234321 76 19 10.0 13.0 0.00 0.00 0.00 19 1017.0
20260508234222 76 16 7.0 13.0 0.00 0.00 0.00 19 1016.9
20260508233322 76 32 8.0 12.0 0.00 0.00 0.00 18 1016.9
20260508232321 76 41 8.0 11.0 0.00 0.00 0.00 18 1017.0
20260508230421 76 6 7.0 15.0 0.00 0.00 0.00 19 1017.3
20260508225521 76 34 11.0 13.0 0.00 0.00 0.00 20 1017.4
20260508224522 76 31 12.0 18.0 0.00 0.00 0.00 19 1017.3
20260508223522 76 32 11.0 18.0 0.00 0.00 0.00 19 1017.4
20260508222523 76 26 6.0 11.0 0.00 0.00 0.00 19 1017.6
20260508220522 76 20 10.0 14.0 0.00 0.00 0.00 19 1017.6
20260508215522 76 23 10.0 19.0 0.00 0.00 0.00 20 1017.8
20260508214620 76 13 10.0 15.0 0.00 0.00 0.00 20 1018.0
20260508213720 75 21 6.0 9.0 0.00 0.00 0.00 20 1018.2
20260508211722 75 21 10.0 15.0 0.00 0.00 0.00 20 1018.3
20260508210739 75 29 9.0 13.0 0.00 0.00 0.00 20 1018.2
20260508204820 75 27 11.0 16.0 0.00 0.00 0.00 20 1018.3
20260508203823 75 30 12.0 18.0 0.00 0.00 0.00 20 1018.5
20260508202020 74 24 11.0 18.0 0.00 0.00 0.00 21 1018.8
20260508201022 74 26 12.0 18.0 0.00 0.00 0.00 20 1018.8
20260508200022 74 30 15.0 24.0 0.00 0.00 0.00 20 1018.7
20260508193021 75 351 4.0 8.0 0.00 0.00 0.00 21 1019.0
20260508192940 74 351 2.0 5.0 0.00 0.00 0.00 21 1019.0
20260508192021 74 36 5.0 7.0 0.00 0.00 0.00 22 1019.2
20260508191022 72 16 8.0 14.0 0.00 0.00 0.00 23 1019.5
20260508190023 72 21 4.0 8.0 0.00 0.00 0.00 25 1019.6
20260508185022 71 12 4.0 8.0 0.00 0.00 0.00 26 1019.7
20260508184023 71 48 8.0 10.0 0.00 0.00 0.00 27 1019.7
20260508183121 72 3 6.0 8.0 0.00 0.00 0.00 27 1019.8
20260508181123 71 10 5.0 10.0 0.00 0.00 0.00 31 1019.9
20260508180139 70 148 4.0 8.0 0.00 0.00 0.00 32 1019.9
20260508175220 69 190 3.0 6.0 0.00 0.00 0.00 33 1020.2
20260508174237 69 191 4.0 7.0 0.00 0.00 0.00 34 1020.2
20260508173223 68 139 3.0 5.0 0.00 0.00 0.00 37 1020.2
20260508171222 67 164 3.0 5.0 0.00 0.00 0.00 37 1020.4
20260508170221 67 127 3.0 5.0 0.00 0.00 0.00 36 1020.3
20260508165221 67 161 2.0 5.0 0.00 0.00 0.00 37 1020.3
20260508164223 66 157 2.0 5.0 0.00 0.00 0.00 38 1020.3
20260508163320 65 157 0.0 2.0 0.00 0.00 0.00 40 1020.3
20260508161321 64 180 4.0 5.0 0.00 0.00 0.00 44 1020.3
20260508155321 64 157 2.0 4.0 0.00 0.00 0.00 46 1020.3
20260508154322 63 135 1.0 3.0 0.00 0.00 0.00 48 1020.2
20260508154237 63 135 0.0 1.0 0.00 0.00 0.00 48 1020.2
20260508153321 63 157 2.0 4.0 0.00 0.00 0.00 46 1020.2
20260508152421 62 157 1.0 4.0 0.00 0.00 0.00 47 1020.2
20260508151438 61 180 0.0 0.0 0.00 0.00 0.00 47 1020.2
20260508145422 60 157 0.0 1.0 0.00 0.00 0.00 50 1020.2
20260508144421 59 180 0.0 1.0 0.00 0.00 0.00 52 1020.1
20260508143423 59 157 1.0 2.0 0.00 0.00 0.00 53 1020.2
20260508142421 59 148 2.0 2.0 0.00 0.00 0.00 53 1020.1
20260508141422 58 360 0.0 0.0 0.00 0.00 0.00 51 1019.9
20260508140521 56 360 0.0 0.0 0.00 0.00 0.00 55 1020.0
20260508135522 54 292 0.0 0.0 0.00 0.00 0.00 60 1019.9
20260508133622 50 292 0.0 0.0 0.00 0.00 0.00 65 1019.4
20260508133521 50 292 0.0 0.0 0.00 0.00 0.00 65 1019.7
20260508133421 50 292 0.0 0.0 0.00 0.00 0.00 65 1019.6
20260508132423 48 292 0.0 1.0 0.00 0.00 0.00 62 1019.4
20260508131423 46 292 0.0 0.0 0.00 0.00 0.00 61 1019.0
20260508130422 46 292 0.0 0.0 0.00 0.00 0.00 60 1019.0
20260508125422 46 292 0.0 0.0 0.00 0.00 0.00 59 1018.9
20260508124422 46 292 0.0 0.0 0.00 0.00 0.00 57 1018.8
20260508122539 47 292 0.0 0.0 0.00 0.00 0.00 54 1018.7
20260508121621 48 292 0.0 0.0 0.00 0.00 0.00 53 1018.5
20260508120624 49 292 0.0 0.0 0.00 0.00 0.00 51 1018.7
20260508115623 50 292 1.0 2.0 0.00 0.00 0.00 51 1018.5
20260508114721 49 292 1.0 2.0 0.00 0.00 0.00 53 1018.3
20260508112838 49 292 0.0 0.0 0.00 0.00 0.00 57 1018.2
20260508111823 48 292 0.0 0.0 0.00 0.00 0.00 58 1018.2
20260508110822 49 292 0.0 0.0 0.00 0.00 0.00 57 1018.2
20260508105920 49 292 0.0 0.0 0.00 0.00 0.00 56 1018.2
20260508104922 49 292 0.0 0.0 0.00 0.00 0.00 54 1018.2
20260508103921 51 292 0.0 0.0 0.00 0.00 0.00 53 1018.0
20260508102921 50 292 1.0 1.0 0.00 0.00 0.00 52 1017.9
20260508100924 50 292 0.0 0.0 0.00 0.00 0.00 55 1017.9
20260508100020 50 292 0.0 0.0 0.00 0.00 0.00 54 1017.9